Regional Weather Roundup
Issued by NWS

Home | Current Version | Previous Version | Text Only | Print | Product List | Glossary Off
Versions: 1 2 3 4 5 6 7 8 9 10 11 12 13 14 15 16 17 18 19 20 21 22 23 24 25 26 27 28 29 30 31 32 33 34 35 36 37 38 39 40 41 42 43 44 45 46 47 48 49 50

000
ASUS44 KMEG 260100
RWRTN
TENNESSEE HOURLY STATE WEATHER ROUNDUP
NATIONAL WEATHER SERVICE MEMPHIS TN
800 PM CDT TUE APR 25 2017

TNZ002-004-019-021-049-052-054-088>092-260200-
WEST TENNESSEE

CITY           SKY/WX    TMP DP  RH WIND       PRES   REMARKS
MEMPHIS INTL   PTCLDY    75  53  46 S12       29.60F
NWS MEMPHIS      N/A     75 N/A N/A MISG        N/A
JACKSON        CLEAR     73  54  51 S8        29.61S
DYERSBURG      CLEAR     74  52  46 S8        29.60S
PARIS          CLEAR     68  54  60 S7        29.64S
$$

TNZ008-025-027-028-033-062-065-066-260200-
NORTH MIDDLE TENNESSEE

CITY           SKY/WX    TMP DP  RH WIND       PRES   REMARKS
NASHVILLE      CLEAR     68  57  68 S7        29.69S
CLARKSVILLE    CLEAR     68  55  63 SE6       29.65S
SMYRNA         CLEAR     69  58  67 SE3       29.70S
CROSSVILLE     CLEAR     63  54  72 CALM      29.76S
$$

TNZ061-075-076-078-094-096-097-260200-
SOUTH MIDDLE TENNESSEE

CITY           SKY/WX    TMP DP  RH WIND       PRES   REMARKS
TULLAHOMA      CLEAR     66  55  68 S3        29.74S
WINCHESTER     CLEAR     68  55  64 CALM      29.74S
COLUMBIA       CLEAR     68  63  83 SE3       29.68S
SHELBYVILLE    CLEAR     66  61  82 SE3       29.72S
$$

TNZ017-018-042-046-047-260200-
NORTHEAST TENNESSEE

CITY           SKY/WX    TMP DP  RH WIND       PRES   REMARKS
TRI CITIES     PTCLDY    62  56  80 CALM      29.77S
$$

TNZ012-013-036-069-073-074-260200-
CENTRAL EAST TENNESSEE

CITY           SKY/WX    TMP DP  RH WIND       PRES   REMARKS
KNOXVILLE      PTCLDY    65  54  67 E5        29.74S
OAK RIDGE      CLOUDY    69  54  58 SE3       29.75S
GATLINBURG     CLEAR     63  55  77 CALM      29.75S
$$

TNZ083-085-099-260200-
SOUTHEAST TENNESSEE

CITY           SKY/WX    TMP DP  RH WIND       PRES   REMARKS
CHATTANOOGA    CLEAR     72  56  57 CALM      29.72R
$$

SKY/WX REPORTED AS FAIR MEANS FEW OR NO CLOUDS BELOW
12 THOUSAND FEET.





USA.gov is the U.S. government's official web portal to all federal, state and local government web resources and services.